<?xml version="1.0" encoding="UTF-8" standalone="no" ?>
<gpx xmlns="http://www.topografix.com/GPX/1/1" xmlns:xsi="http://www.w3.org/2001/XMLSchema-instance" xsi:schemaLocation="http://www.topografix.com/GPX/1/1 http://www.topografix.com/GPX/1/1/gpx.xsd" version="1.1" creator="VisuGPX - https://www.visugpx.com">
  <metadata>
    <name>Tour Aubrac J1/3</name>
    <desc><![CDATA[Tour de l'Aubrac en VTT sur 3 jours, Jour 1]]></desc>
  </metadata>
  <trk>
    <name><![CDATA[Tour de l’Aubrac - Aumont - St Chely (Etape 1/3) - 443 - UtagawaVTT.com]]></name>
    <trkseg>
      <trkpt lat="44.71839" lon="3.2838">
        <ele>1053</ele>
        <time>2006-03-13T19:54:23Z</time>
      </trkpt>
      <trkpt lat="44.71884" lon="3.2833">
        <ele>1053</ele>
        <time>2006-03-13T19:54:23Z</time>
      </trkpt>
      <trkpt lat="44.71929" lon="3.28306">
        <ele>1052</ele>
        <time>2006-03-13T19:54:23Z</time>
      </trkpt>
      <trkpt lat="44.72029" lon="3.28288">
        <ele>1051</ele>
        <time>2006-03-13T19:54:23Z</time>
      </trkpt>
      <trkpt lat="44.72145" lon="3.28309">
        <ele>1052</ele>
        <time>2006-03-13T19:54:23Z</time>
      </trkpt>
      <trkpt lat="44.72096" lon="3.28239">
        <ele>1047</ele>
        <time>2006-03-13T19:54:23Z</time>
      </trkpt>
      <trkpt lat="44.72074" lon="3.28207">
        <ele>1044</ele>
        <time>2006-03-13T19:54:23Z</time>
      </trkpt>
      <trkpt lat="44.72038" lon="3.28219">
        <ele>1042</ele>
        <time>2006-03-13T19:54:23Z</time>
      </trkpt>
      <trkpt lat="44.72025" lon="3.282">
        <ele>1040</ele>
        <time>2006-03-13T19:54:23Z</time>
      </trkpt>
      <trkpt lat="44.71996" lon="3.28171">
        <ele>1036</ele>
        <time>2006-03-13T19:54:23Z</time>
      </trkpt>
      <trkpt lat="44.72001" lon="3.28096">
        <ele>1032</ele>
        <time>2006-03-13T19:54:23Z</time>
      </trkpt>
      <trkpt lat="44.72067" lon="3.28002">
        <ele>1028</ele>
        <time>2006-03-13T19:54:23Z</time>
      </trkpt>
      <trkpt lat="44.72085" lon="3.27968">
        <ele>1027</ele>
        <time>2006-03-13T19:54:23Z</time>
      </trkpt>
      <trkpt lat="44.72144" lon="3.27909">
        <ele>1022</ele>
        <time>2006-03-13T19:54:23Z</time>
      </trkpt>
      <trkpt lat="44.72147" lon="3.27836">
        <ele>1021</ele>
        <time>2006-03-13T19:54:23Z</time>
      </trkpt>
      <trkpt lat="44.72121" lon="3.27785">
        <ele>1024</ele>
        <time>2006-03-13T19:54:23Z</time>
      </trkpt>
      <trkpt lat="44.72116" lon="3.27744">
        <ele>1028</ele>
        <time>2006-03-13T19:54:23Z</time>
      </trkpt>
      <trkpt lat="44.72128" lon="3.27666">
        <ele>1037</ele>
        <time>2006-03-13T19:54:23Z</time>
      </trkpt>
      <trkpt lat="44.72084" lon="3.27567">
        <ele>1036</ele>
        <time>2006-03-13T19:54:23Z</time>
      </trkpt>
      <trkpt lat="44.72051" lon="3.27481">
        <ele>1038</ele>
        <time>2006-03-13T19:54:23Z</time>
      </trkpt>
      <trkpt lat="44.71998" lon="3.27402">
        <ele>1038</ele>
        <time>2006-03-13T19:54:23Z</time>
      </trkpt>
      <trkpt lat="44.72032" lon="3.27336">
        <ele>1042</ele>
        <time>2006-03-13T19:54:23Z</time>
      </trkpt>
      <trkpt lat="44.72021" lon="3.27276">
        <ele>1044</ele>
        <time>2006-03-13T19:54:23Z</time>
      </trkpt>
      <trkpt lat="44.72017" lon="3.27238">
        <ele>1045</ele>
        <time>2006-03-13T19:54:23Z</time>
      </trkpt>
      <trkpt lat="44.72025" lon="3.27159">
        <ele>1046</ele>
        <time>2006-03-13T19:54:23Z</time>
      </trkpt>
      <trkpt lat="44.72043" lon="3.27134">
        <ele>1045</ele>
        <time>2006-03-13T19:54:23Z</time>
      </trkpt>
      <trkpt lat="44.72058" lon="3.26961">
        <ele>1040</ele>
        <time>2006-03-13T19:54:23Z</time>
      </trkpt>
      <trkpt lat="44.72032" lon="3.26834">
        <ele>1039</ele>
        <time>2006-03-13T19:54:23Z</time>
      </trkpt>
      <trkpt lat="44.72012" lon="3.26743">
        <ele>1041</ele>
        <time>2006-03-13T19:54:23Z</time>
      </trkpt>
      <trkpt lat="44.72002" lon="3.26629">
        <ele>1045</ele>
        <time>2006-03-13T19:54:23Z</time>
      </trkpt>
      <trkpt lat="44.72017" lon="3.26513">
        <ele>1049</ele>
        <time>2006-03-13T19:54:23Z</time>
      </trkpt>
      <trkpt lat="44.72027" lon="3.26402">
        <ele>1054</ele>
        <time>2006-03-13T19:54:23Z</time>
      </trkpt>
      <trkpt lat="44.72009" lon="3.2632">
        <ele>1058</ele>
        <time>2006-03-13T19:54:23Z</time>
      </trkpt>
      <trkpt lat="44.71986" lon="3.262">
        <ele>1066</ele>
        <time>2006-03-13T19:54:23Z</time>
      </trkpt>
      <trkpt lat="44.71989" lon="3.26089">
        <ele>1072</ele>
        <time>2006-03-13T19:54:23Z</time>
      </trkpt>
      <trkpt lat="44.72012" lon="3.26005">
        <ele>1073</ele>
        <time>2006-03-13T19:54:23Z</time>
      </trkpt>
      <trkpt lat="44.72039" lon="3.25929">
        <ele>1075</ele>
        <time>2006-03-13T19:54:23Z</time>
      </trkpt>
      <trkpt lat="44.72054" lon="3.25788">
        <ele>1076</ele>
        <time>2006-03-13T19:54:23Z</time>
      </trkpt>
      <trkpt lat="44.7208" lon="3.25671">
        <ele>1078</ele>
        <time>2006-03-13T19:54:23Z</time>
      </trkpt>
      <trkpt lat="44.72123" lon="3.25568">
        <ele>1081</ele>
        <time>2006-03-13T19:54:23Z</time>
      </trkpt>
      <trkpt lat="44.72155" lon="3.25512">
        <ele>1084</ele>
        <time>2006-03-13T19:54:23Z</time>
      </trkpt>
      <trkpt lat="44.7219" lon="3.2537">
        <ele>1086</ele>
        <time>2006-03-13T19:54:23Z</time>
      </trkpt>
      <trkpt lat="44.72225" lon="3.25201">
        <ele>1081</ele>
        <time>2006-03-13T19:54:23Z</time>
      </trkpt>
      <trkpt lat="44.7222" lon="3.25106">
        <ele>1082</ele>
        <time>2006-03-13T19:54:23Z</time>
      </trkpt>
      <trkpt lat="44.72312" lon="3.24745">
        <ele>1102</ele>
        <time>2006-03-13T19:54:23Z</time>
      </trkpt>
      <trkpt lat="44.72384" lon="3.24563">
        <ele>1100</ele>
        <time>2006-03-13T19:54:23Z</time>
      </trkpt>
      <trkpt lat="44.72412" lon="3.24399">
        <ele>1100</ele>
        <time>2006-03-13T19:54:23Z</time>
      </trkpt>
      <trkpt lat="44.72471" lon="3.24334">
        <ele>1101</ele>
        <time>2006-03-13T19:54:23Z</time>
      </trkpt>
      <trkpt lat="44.72474" lon="3.24262">
        <ele>1104</ele>
        <time>2006-03-13T19:54:23Z</time>
      </trkpt>
      <trkpt lat="44.72474" lon="3.24224">
        <ele>1105</ele>
        <time>2006-03-13T19:54:23Z</time>
      </trkpt>
      <trkpt lat="44.72518" lon="3.24133">
        <ele>1107</ele>
        <time>2006-03-13T19:54:23Z</time>
      </trkpt>
      <trkpt lat="44.7253" lon="3.24039">
        <ele>1112</ele>
        <time>2006-03-13T19:54:23Z</time>
      </trkpt>
      <trkpt lat="44.72544" lon="3.23966">
        <ele>1117</ele>
        <time>2006-03-13T19:54:23Z</time>
      </trkpt>
      <trkpt lat="44.72564" lon="3.23916">
        <ele>1120</ele>
        <time>2006-03-13T19:54:23Z</time>
      </trkpt>
      <trkpt lat="44.72631" lon="3.2376">
        <ele>1123</ele>
        <time>2006-03-13T19:54:23Z</time>
      </trkpt>
      <trkpt lat="44.72672" lon="3.23647">
        <ele>1131</ele>
        <time>2006-03-13T19:54:23Z</time>
      </trkpt>
      <trkpt lat="44.72616" lon="3.23624">
        <ele>1130</ele>
        <time>2006-03-13T19:54:23Z</time>
      </trkpt>
      <trkpt lat="44.7257" lon="3.23544">
        <ele>1132</ele>
        <time>2006-03-13T19:54:23Z</time>
      </trkpt>
      <trkpt lat="44.72523" lon="3.23496">
        <ele>1130</ele>
        <time>2006-03-13T19:54:23Z</time>
      </trkpt>
      <trkpt lat="44.72458" lon="3.23441">
        <ele>1131</ele>
        <time>2006-03-13T19:54:23Z</time>
      </trkpt>
      <trkpt lat="44.72389" lon="3.23352">
        <ele>1134</ele>
        <time>2006-03-13T19:54:23Z</time>
      </trkpt>
      <trkpt lat="44.72336" lon="3.2326">
        <ele>1130</ele>
        <time>2006-03-13T19:54:23Z</time>
      </trkpt>
      <trkpt lat="44.72287" lon="3.23202">
        <ele>1124</ele>
        <time>2006-03-13T19:54:23Z</time>
      </trkpt>
      <trkpt lat="44.72244" lon="3.23189">
        <ele>1123</ele>
        <time>2006-03-13T19:54:23Z</time>
      </trkpt>
      <trkpt lat="44.722" lon="3.2309">
        <ele>1126</ele>
        <time>2006-03-13T19:54:23Z</time>
      </trkpt>
      <trkpt lat="44.7214" lon="3.23023">
        <ele>1128</ele>
        <time>2006-03-13T19:54:23Z</time>
      </trkpt>
      <trkpt lat="44.72102" lon="3.22963">
        <ele>1133</ele>
        <time>2006-03-13T19:54:23Z</time>
      </trkpt>
      <trkpt lat="44.72004" lon="3.22907">
        <ele>1139</ele>
        <time>2006-03-13T19:54:23Z</time>
      </trkpt>
      <trkpt lat="44.71926" lon="3.22824">
        <ele>1144</ele>
        <time>2006-03-13T19:54:23Z</time>
      </trkpt>
      <trkpt lat="44.71861" lon="3.22741">
        <ele>1150</ele>
        <time>2006-03-13T19:54:23Z</time>
      </trkpt>
      <trkpt lat="44.71756" lon="3.2268">
        <ele>1151</ele>
        <time>2006-03-13T19:54:23Z</time>
      </trkpt>
      <trkpt lat="44.71702" lon="3.22653">
        <ele>1149</ele>
        <time>2006-03-13T19:54:23Z</time>
      </trkpt>
      <trkpt lat="44.71653" lon="3.22568">
        <ele>1141</ele>
        <time>2006-03-13T19:54:23Z</time>
      </trkpt>
      <trkpt lat="44.71616" lon="3.22507">
        <ele>1131</ele>
        <time>2006-03-13T19:54:23Z</time>
      </trkpt>
      <trkpt lat="44.71589" lon="3.22481">
        <ele>1127</ele>
        <time>2006-03-13T19:54:23Z</time>
      </trkpt>
      <trkpt lat="44.71533" lon="3.22449">
        <ele>1120</ele>
        <time>2006-03-13T19:54:23Z</time>
      </trkpt>
      <trkpt lat="44.71523" lon="3.22332">
        <ele>1110</ele>
        <time>2006-03-13T19:54:23Z</time>
      </trkpt>
      <trkpt lat="44.71501" lon="3.2225">
        <ele>1109</ele>
        <time>2006-03-13T19:54:23Z</time>
      </trkpt>
      <trkpt lat="44.71476" lon="3.22243">
        <ele>1110</ele>
        <time>2006-03-13T19:54:23Z</time>
      </trkpt>
      <trkpt lat="44.71476" lon="3.22208">
        <ele>1110</ele>
        <time>2006-03-13T19:54:23Z</time>
      </trkpt>
      <trkpt lat="44.71445" lon="3.22186">
        <ele>1113</ele>
        <time>2006-03-13T19:54:23Z</time>
      </trkpt>
      <trkpt lat="44.71401" lon="3.22113">
        <ele>1118</ele>
        <time>2006-03-13T19:54:23Z</time>
      </trkpt>
      <trkpt lat="44.71363" lon="3.22043">
        <ele>1121</ele>
        <time>2006-03-13T19:54:23Z</time>
      </trkpt>
      <trkpt lat="44.71305" lon="3.21988">
        <ele>1126</ele>
        <time>2006-03-13T19:54:23Z</time>
      </trkpt>
      <trkpt lat="44.7124" lon="3.21949">
        <ele>1128</ele>
        <time>2006-03-13T19:54:23Z</time>
      </trkpt>
      <trkpt lat="44.71185" lon="3.21844">
        <ele>1132</ele>
        <time>2006-03-13T19:54:23Z</time>
      </trkpt>
      <trkpt lat="44.71111" lon="3.21824">
        <ele>1135</ele>
        <time>2006-03-13T19:54:23Z</time>
      </trkpt>
      <trkpt lat="44.71032" lon="3.21804">
        <ele>1138</ele>
        <time>2006-03-13T19:54:23Z</time>
      </trkpt>
      <trkpt lat="44.70924" lon="3.21837">
        <ele>1143</ele>
        <time>2006-03-13T19:54:23Z</time>
      </trkpt>
      <trkpt lat="44.70857" lon="3.21808">
        <ele>1154</ele>
        <time>2006-03-13T19:54:23Z</time>
      </trkpt>
      <trkpt lat="44.70818" lon="3.21829">
        <ele>1159</ele>
        <time>2006-03-13T19:54:23Z</time>
      </trkpt>
      <trkpt lat="44.70769" lon="3.21866">
        <ele>1163</ele>
        <time>2006-03-13T19:54:23Z</time>
      </trkpt>
      <trkpt lat="44.70685" lon="3.21858">
        <ele>1169</ele>
        <time>2006-03-13T19:54:23Z</time>
      </trkpt>
      <trkpt lat="44.70607" lon="3.21864">
        <ele>1174</ele>
        <time>2006-03-13T19:54:23Z</time>
      </trkpt>
      <trkpt lat="44.7055" lon="3.21863">
        <ele>1177</ele>
        <time>2006-03-13T19:54:23Z</time>
      </trkpt>
      <trkpt lat="44.70483" lon="3.21843">
        <ele>1179</ele>
        <time>2006-03-13T19:54:23Z</time>
      </trkpt>
      <trkpt lat="44.70378" lon="3.21791">
        <ele>1188</ele>
        <time>2006-03-13T19:54:23Z</time>
      </trkpt>
      <trkpt lat="44.70335" lon="3.2179">
        <ele>1191</ele>
        <time>2006-03-13T19:54:23Z</time>
      </trkpt>
      <trkpt lat="44.70295" lon="3.2178">
        <ele>1193</ele>
        <time>2006-03-13T19:54:23Z</time>
      </trkpt>
      <trkpt lat="44.70248" lon="3.2176">
        <ele>1192</ele>
        <time>2006-03-13T19:54:23Z</time>
      </trkpt>
      <trkpt lat="44.70203" lon="3.21759">
        <ele>1191</ele>
        <time>2006-03-13T19:54:23Z</time>
      </trkpt>
      <trkpt lat="44.70158" lon="3.21781">
        <ele>1192</ele>
        <time>2006-03-13T19:54:23Z</time>
      </trkpt>
      <trkpt lat="44.70063" lon="3.21764">
        <ele>1190</ele>
        <time>2006-03-13T19:54:23Z</time>
      </trkpt>
      <trkpt lat="44.69956" lon="3.21686">
        <ele>1191</ele>
        <time>2006-03-13T19:54:23Z</time>
      </trkpt>
      <trkpt lat="44.69875" lon="3.21628">
        <ele>1191</ele>
        <time>2006-03-13T19:54:23Z</time>
      </trkpt>
      <trkpt lat="44.69766" lon="3.2157">
        <ele>1191</ele>
        <time>2006-03-13T19:54:23Z</time>
      </trkpt>
      <trkpt lat="44.69672" lon="3.21505">
        <ele>1193</ele>
        <time>2006-03-13T19:54:23Z</time>
      </trkpt>
      <trkpt lat="44.696" lon="3.21466">
        <ele>1197</ele>
        <time>2006-03-13T19:54:23Z</time>
      </trkpt>
      <trkpt lat="44.69524" lon="3.21446">
        <ele>1200</ele>
        <time>2006-03-13T19:54:23Z</time>
      </trkpt>
      <trkpt lat="44.69466" lon="3.21414">
        <ele>1201</ele>
        <time>2006-03-13T19:54:23Z</time>
      </trkpt>
      <trkpt lat="44.6941" lon="3.21381">
        <ele>1201</ele>
        <time>2006-03-13T19:54:23Z</time>
      </trkpt>
      <trkpt lat="44.6934" lon="3.21339">
        <ele>1202</ele>
        <time>2006-03-13T19:54:23Z</time>
      </trkpt>
      <trkpt lat="44.69249" lon="3.21272">
        <ele>1204</ele>
        <time>2006-03-13T19:54:23Z</time>
      </trkpt>
      <trkpt lat="44.69155" lon="3.21229">
        <ele>1207</ele>
        <time>2006-03-13T19:54:23Z</time>
      </trkpt>
      <trkpt lat="44.69085" lon="3.21219">
        <ele>1209</ele>
        <time>2006-03-13T19:54:23Z</time>
      </trkpt>
      <trkpt lat="44.6899" lon="3.21246">
        <ele>1214</ele>
        <time>2006-03-13T19:54:23Z</time>
      </trkpt>
      <trkpt lat="44.6895" lon="3.21264">
        <ele>1215</ele>
        <time>2006-03-13T19:54:23Z</time>
      </trkpt>
      <trkpt lat="44.68909" lon="3.21276">
        <ele>1214</ele>
        <time>2006-03-13T19:54:23Z</time>
      </trkpt>
      <trkpt lat="44.68878" lon="3.21263">
        <ele>1212</ele>
        <time>2006-03-13T19:54:23Z</time>
      </trkpt>
      <trkpt lat="44.68862" lon="3.21234">
        <ele>1210</ele>
        <time>2006-03-13T19:54:23Z</time>
      </trkpt>
      <trkpt lat="44.68894" lon="3.21165">
        <ele>1210</ele>
        <time>2006-03-13T19:54:23Z</time>
      </trkpt>
      <trkpt lat="44.68919" lon="3.21125">
        <ele>1206</ele>
        <time>2006-03-13T19:54:23Z</time>
      </trkpt>
      <trkpt lat="44.68916" lon="3.21011">
        <ele>1201</ele>
        <time>2006-03-13T19:54:23Z</time>
      </trkpt>
      <trkpt lat="44.68913" lon="3.20825">
        <ele>1204</ele>
        <time>2006-03-13T19:54:23Z</time>
      </trkpt>
      <trkpt lat="44.68904" lon="3.20771">
        <ele>1206</ele>
        <time>2006-03-13T19:54:23Z</time>
      </trkpt>
      <trkpt lat="44.68855" lon="3.20676">
        <ele>1209</ele>
        <time>2006-03-13T19:54:23Z</time>
      </trkpt>
      <trkpt lat="44.68786" lon="3.20602">
        <ele>1213</ele>
        <time>2006-03-13T19:54:23Z</time>
      </trkpt>
      <trkpt lat="44.68605" lon="3.20461">
        <ele>1212</ele>
        <time>2006-03-13T19:54:23Z</time>
      </trkpt>
      <trkpt lat="44.68563" lon="3.20413">
        <ele>1210</ele>
        <time>2006-03-13T19:54:23Z</time>
      </trkpt>
      <trkpt lat="44.68543" lon="3.2035">
        <ele>1209</ele>
        <time>2006-03-13T19:54:23Z</time>
      </trkpt>
      <trkpt lat="44.68528" lon="3.20296">
        <ele>1209</ele>
        <time>2006-03-13T19:54:23Z</time>
      </trkpt>
      <trkpt lat="44.68459" lon="3.20181">
        <ele>1213</ele>
        <time>2006-03-13T19:54:23Z</time>
      </trkpt>
      <trkpt lat="44.68415" lon="3.20105">
        <ele>1214</ele>
        <time>2006-03-13T19:54:23Z</time>
      </trkpt>
      <trkpt lat="44.68348" lon="3.19981">
        <ele>1215</ele>
        <time>2006-03-13T19:54:23Z</time>
      </trkpt>
      <trkpt lat="44.68286" lon="3.19936">
        <ele>1216</ele>
        <time>2006-03-13T19:54:23Z</time>
      </trkpt>
      <trkpt lat="44.6816" lon="3.19877">
        <ele>1216</ele>
        <time>2006-03-13T19:54:23Z</time>
      </trkpt>
      <trkpt lat="44.68053" lon="3.19838">
        <ele>1212</ele>
        <time>2006-03-13T19:54:23Z</time>
      </trkpt>
      <trkpt lat="44.68003" lon="3.19824">
        <ele>1208</ele>
        <time>2006-03-13T19:54:23Z</time>
      </trkpt>
      <trkpt lat="44.67951" lon="3.19827">
        <ele>1206</ele>
        <time>2006-03-13T19:54:23Z</time>
      </trkpt>
      <trkpt lat="44.67909" lon="3.19779">
        <ele>1205</ele>
        <time>2006-03-13T19:54:23Z</time>
      </trkpt>
      <trkpt lat="44.67887" lon="3.19753">
        <ele>1206</ele>
        <time>2006-03-13T19:54:23Z</time>
      </trkpt>
      <trkpt lat="44.67808" lon="3.19743">
        <ele>1208</ele>
        <time>2006-03-13T19:54:23Z</time>
      </trkpt>
      <trkpt lat="44.67743" lon="3.19742">
        <ele>1205</ele>
        <time>2006-03-13T19:54:23Z</time>
      </trkpt>
      <trkpt lat="44.67687" lon="3.19769">
        <ele>1200</ele>
        <time>2006-03-13T19:54:23Z</time>
      </trkpt>
      <trkpt lat="44.67639" lon="3.19762">
        <ele>1200</ele>
        <time>2006-03-13T19:54:23Z</time>
      </trkpt>
      <trkpt lat="44.67608" lon="3.19777">
        <ele>1198</ele>
        <time>2006-03-13T19:54:23Z</time>
      </trkpt>
      <trkpt lat="44.67572" lon="3.19774">
        <ele>1198</ele>
        <time>2006-03-13T19:54:23Z</time>
      </trkpt>
      <trkpt lat="44.67529" lon="3.19795">
        <ele>1194</ele>
        <time>2006-03-13T19:54:23Z</time>
      </trkpt>
      <trkpt lat="44.67493" lon="3.19801">
        <ele>1192</ele>
        <time>2006-03-13T19:54:23Z</time>
      </trkpt>
      <trkpt lat="44.6745" lon="3.19775">
        <ele>1191</ele>
        <time>2006-03-13T19:54:23Z</time>
      </trkpt>
      <trkpt lat="44.67401" lon="3.19752">
        <ele>1189</ele>
        <time>2006-03-13T19:54:23Z</time>
      </trkpt>
      <trkpt lat="44.67363" lon="3.19711">
        <ele>1190</ele>
        <time>2006-03-13T19:54:23Z</time>
      </trkpt>
      <trkpt lat="44.6733" lon="3.1965">
        <ele>1192</ele>
        <time>2006-03-13T19:54:23Z</time>
      </trkpt>
      <trkpt lat="44.67324" lon="3.19556">
        <ele>1194</ele>
        <time>2006-03-13T19:54:23Z</time>
      </trkpt>
      <trkpt lat="44.67354" lon="3.19458">
        <ele>1194</ele>
        <time>2006-03-13T19:54:23Z</time>
      </trkpt>
      <trkpt lat="44.67334" lon="3.19408">
        <ele>1187</ele>
        <time>2006-03-13T19:54:23Z</time>
      </trkpt>
      <trkpt lat="44.67294" lon="3.19404">
        <ele>1179</ele>
        <time>2006-03-13T19:54:23Z</time>
      </trkpt>
      <trkpt lat="44.67262" lon="3.19375">
        <ele>1175</ele>
        <time>2006-03-13T19:54:23Z</time>
      </trkpt>
      <trkpt lat="44.67241" lon="3.19268">
        <ele>1185</ele>
        <time>2006-03-13T19:54:23Z</time>
      </trkpt>
      <trkpt lat="44.67221" lon="3.19207">
        <ele>1188</ele>
        <time>2006-03-13T19:54:23Z</time>
      </trkpt>
      <trkpt lat="44.67205" lon="3.19173">
        <ele>1187</ele>
        <time>2006-03-13T19:54:23Z</time>
      </trkpt>
      <trkpt lat="44.67198" lon="3.19012">
        <ele>1187</ele>
        <time>2006-03-13T19:54:23Z</time>
      </trkpt>
      <trkpt lat="44.67196" lon="3.18883">
        <ele>1189</ele>
        <time>2006-03-13T19:54:23Z</time>
      </trkpt>
      <trkpt lat="44.67186" lon="3.18775">
        <ele>1186</ele>
        <time>2006-03-13T19:54:23Z</time>
      </trkpt>
      <trkpt lat="44.67191" lon="3.18697">
        <ele>1186</ele>
        <time>2006-03-13T19:54:23Z</time>
      </trkpt>
      <trkpt lat="44.67203" lon="3.18646">
        <ele>1186</ele>
        <time>2006-03-13T19:54:23Z</time>
      </trkpt>
      <trkpt lat="44.6728" lon="3.18575">
        <ele>1193</ele>
        <time>2006-03-13T19:54:23Z</time>
      </trkpt>
      <trkpt lat="44.67294" lon="3.18522">
        <ele>1192</ele>
        <time>2006-03-13T19:54:23Z</time>
      </trkpt>
      <trkpt lat="44.67268" lon="3.1842">
        <ele>1191</ele>
        <time>2006-03-13T19:54:23Z</time>
      </trkpt>
      <trkpt lat="44.67248" lon="3.18351">
        <ele>1190</ele>
        <time>2006-03-13T19:54:23Z</time>
      </trkpt>
      <trkpt lat="44.67271" lon="3.18209">
        <ele>1192</ele>
        <time>2006-03-13T19:54:23Z</time>
      </trkpt>
      <trkpt lat="44.67354" lon="3.18012">
        <ele>1182</ele>
        <time>2006-03-13T19:54:23Z</time>
      </trkpt>
      <trkpt lat="44.674" lon="3.17868">
        <ele>1181</ele>
        <time>2006-03-13T19:54:23Z</time>
      </trkpt>
      <trkpt lat="44.67398" lon="3.17795">
        <ele>1183</ele>
        <time>2006-03-13T19:54:23Z</time>
      </trkpt>
      <trkpt lat="44.67354" lon="3.177">
        <ele>1180</ele>
        <time>2006-03-13T19:54:23Z</time>
      </trkpt>
      <trkpt lat="44.67359" lon="3.17587">
        <ele>1182</ele>
        <time>2006-03-13T19:54:23Z</time>
      </trkpt>
      <trkpt lat="44.67413" lon="3.17395">
        <ele>1175</ele>
        <time>2006-03-13T19:54:23Z</time>
      </trkpt>
      <trkpt lat="44.67422" lon="3.17307">
        <ele>1173</ele>
        <time>2006-03-13T19:54:23Z</time>
      </trkpt>
      <trkpt lat="44.67421" lon="3.17153">
        <ele>1179</ele>
        <time>2006-03-13T19:54:23Z</time>
      </trkpt>
      <trkpt lat="44.67429" lon="3.17017">
        <ele>1188</ele>
        <time>2006-03-13T19:54:23Z</time>
      </trkpt>
      <trkpt lat="44.67439" lon="3.16869">
        <ele>1195</ele>
        <time>2006-03-13T19:54:23Z</time>
      </trkpt>
      <trkpt lat="44.67419" lon="3.16815">
        <ele>1201</ele>
        <time>2006-03-13T19:54:23Z</time>
      </trkpt>
      <trkpt lat="44.67349" lon="3.1689">
        <ele>1202</ele>
        <time>2006-03-13T19:54:23Z</time>
      </trkpt>
      <trkpt lat="44.67303" lon="3.16971">
        <ele>1198</ele>
        <time>2006-03-13T19:54:23Z</time>
      </trkpt>
      <trkpt lat="44.67255" lon="3.17084">
        <ele>1196</ele>
        <time>2006-03-13T19:54:23Z</time>
      </trkpt>
      <trkpt lat="44.67223" lon="3.17191">
        <ele>1191</ele>
        <time>2006-03-13T19:54:23Z</time>
      </trkpt>
      <trkpt lat="44.67148" lon="3.173">
        <ele>1191</ele>
        <time>2006-03-13T19:54:23Z</time>
      </trkpt>
      <trkpt lat="44.67064" lon="3.17409">
        <ele>1185</ele>
        <time>2006-03-13T19:54:23Z</time>
      </trkpt>
      <trkpt lat="44.66962" lon="3.17458">
        <ele>1179</ele>
        <time>2006-03-13T19:54:23Z</time>
      </trkpt>
      <trkpt lat="44.66915" lon="3.17498">
        <ele>1176</ele>
        <time>2006-03-13T19:54:23Z</time>
      </trkpt>
      <trkpt lat="44.66876" lon="3.17554">
        <ele>1174</ele>
        <time>2006-03-13T19:54:23Z</time>
      </trkpt>
      <trkpt lat="44.66846" lon="3.17639">
        <ele>1168</ele>
        <time>2006-03-13T19:54:23Z</time>
      </trkpt>
      <trkpt lat="44.66817" lon="3.17692">
        <ele>1163</ele>
        <time>2006-03-13T19:54:23Z</time>
      </trkpt>
      <trkpt lat="44.66747" lon="3.17738">
        <ele>1162</ele>
        <time>2006-03-13T19:54:23Z</time>
      </trkpt>
      <trkpt lat="44.66719" lon="3.17829">
        <ele>1156</ele>
        <time>2006-03-13T19:54:23Z</time>
      </trkpt>
      <trkpt lat="44.66624" lon="3.17944">
        <ele>1156</ele>
        <time>2006-03-13T19:54:23Z</time>
      </trkpt>
      <trkpt lat="44.66587" lon="3.18019">
        <ele>1154</ele>
        <time>2006-03-13T19:54:23Z</time>
      </trkpt>
      <trkpt lat="44.66611" lon="3.18165">
        <ele>1151</ele>
        <time>2006-03-13T19:54:23Z</time>
      </trkpt>
      <trkpt lat="44.66605" lon="3.18281">
        <ele>1148</ele>
        <time>2006-03-13T19:54:23Z</time>
      </trkpt>
      <trkpt lat="44.66473" lon="3.18465">
        <ele>1144</ele>
        <time>2006-03-13T19:54:23Z</time>
      </trkpt>
      <trkpt lat="44.66456" lon="3.18443">
        <ele>1144</ele>
        <time>2006-03-13T19:54:23Z</time>
      </trkpt>
      <trkpt lat="44.66386" lon="3.18442">
        <ele>1144</ele>
        <time>2006-03-13T19:54:23Z</time>
      </trkpt>
      <trkpt lat="44.66343" lon="3.18428">
        <ele>1147</ele>
        <time>2006-03-13T19:54:23Z</time>
      </trkpt>
      <trkpt lat="44.66285" lon="3.18361">
        <ele>1154</ele>
        <time>2006-03-13T19:54:23Z</time>
      </trkpt>
      <trkpt lat="44.66113" lon="3.18286">
        <ele>1166</ele>
        <time>2006-03-13T19:54:23Z</time>
      </trkpt>
      <trkpt lat="44.66077" lon="3.18257">
        <ele>1168</ele>
        <time>2006-03-13T19:54:23Z</time>
      </trkpt>
      <trkpt lat="44.6605" lon="3.18241">
        <ele>1169</ele>
        <time>2006-03-13T19:54:23Z</time>
      </trkpt>
      <trkpt lat="44.66026" lon="3.18203">
        <ele>1171</ele>
        <time>2006-03-13T19:54:23Z</time>
      </trkpt>
      <trkpt lat="44.65967" lon="3.18196">
        <ele>1170</ele>
        <time>2006-03-13T19:54:23Z</time>
      </trkpt>
      <trkpt lat="44.65884" lon="3.18173">
        <ele>1167</ele>
        <time>2006-03-13T19:54:23Z</time>
      </trkpt>
      <trkpt lat="44.65837" lon="3.18219">
        <ele>1166</ele>
        <time>2006-03-13T19:54:23Z</time>
      </trkpt>
      <trkpt lat="44.65771" lon="3.18269">
        <ele>1165</ele>
        <time>2006-03-13T19:54:23Z</time>
      </trkpt>
      <trkpt lat="44.65699" lon="3.18283">
        <ele>1165</ele>
        <time>2006-03-13T19:54:23Z</time>
      </trkpt>
      <trkpt lat="44.65596" lon="3.18269">
        <ele>1177</ele>
        <time>2006-03-13T19:54:23Z</time>
      </trkpt>
      <trkpt lat="44.65477" lon="3.18248">
        <ele>1182</ele>
        <time>2006-03-13T19:54:23Z</time>
      </trkpt>
      <trkpt lat="44.65378" lon="3.18247">
        <ele>1189</ele>
        <time>2006-03-13T19:54:23Z</time>
      </trkpt>
      <trkpt lat="44.65293" lon="3.18227">
        <ele>1195</ele>
        <time>2006-03-13T19:54:23Z</time>
      </trkpt>
      <trkpt lat="44.65226" lon="3.18166">
        <ele>1200</ele>
        <time>2006-03-13T19:54:23Z</time>
      </trkpt>
      <trkpt lat="44.6517" lon="3.18083">
        <ele>1201</ele>
        <time>2006-03-13T19:54:23Z</time>
      </trkpt>
      <trkpt lat="44.65157" lon="3.18017">
        <ele>1205</ele>
        <time>2006-03-13T19:54:23Z</time>
      </trkpt>
      <trkpt lat="44.65132" lon="3.18001">
        <ele>1201</ele>
        <time>2006-03-13T19:54:23Z</time>
      </trkpt>
      <trkpt lat="44.65125" lon="3.18142">
        <ele>1197</ele>
        <time>2006-03-13T19:54:23Z</time>
      </trkpt>
      <trkpt lat="44.65148" lon="3.18284">
        <ele>1197</ele>
        <time>2006-03-13T19:54:23Z</time>
      </trkpt>
      <trkpt lat="44.65169" lon="3.18439">
        <ele>1196</ele>
        <time>2006-03-13T19:54:23Z</time>
      </trkpt>
      <trkpt lat="44.65163" lon="3.18464">
        <ele>1196</ele>
        <time>2006-03-13T19:54:23Z</time>
      </trkpt>
      <trkpt lat="44.65166" lon="3.18552">
        <ele>1199</ele>
        <time>2006-03-13T19:54:23Z</time>
      </trkpt>
      <trkpt lat="44.6513" lon="3.18662">
        <ele>1199</ele>
        <time>2006-03-13T19:54:23Z</time>
      </trkpt>
      <trkpt lat="44.65111" lon="3.18722">
        <ele>1193</ele>
        <time>2006-03-13T19:54:23Z</time>
      </trkpt>
      <trkpt lat="44.65117" lon="3.18813">
        <ele>1197</ele>
        <time>2006-03-13T19:54:23Z</time>
      </trkpt>
      <trkpt lat="44.65096" lon="3.18904">
        <ele>1196</ele>
        <time>2006-03-13T19:54:23Z</time>
      </trkpt>
      <trkpt lat="44.65057" lon="3.19052">
        <ele>1189</ele>
        <time>2006-03-13T19:54:23Z</time>
      </trkpt>
      <trkpt lat="44.6502" lon="3.19164">
        <ele>1174</ele>
        <time>2006-03-13T19:54:23Z</time>
      </trkpt>
      <trkpt lat="44.65019" lon="3.19309">
        <ele>1151</ele>
        <time>2006-03-13T19:54:23Z</time>
      </trkpt>
      <trkpt lat="44.65084" lon="3.19354">
        <ele>1164</ele>
        <time>2006-03-13T19:54:23Z</time>
      </trkpt>
      <trkpt lat="44.65095" lon="3.19389">
        <ele>1166</ele>
        <time>2006-03-13T19:54:23Z</time>
      </trkpt>
      <trkpt lat="44.65081" lon="3.19446">
        <ele>1159</ele>
        <time>2006-03-13T19:54:23Z</time>
      </trkpt>
      <trkpt lat="44.65078" lon="3.19502">
        <ele>1148</ele>
        <time>2006-03-13T19:54:23Z</time>
      </trkpt>
      <trkpt lat="44.65114" lon="3.19563">
        <ele>1138</ele>
        <time>2006-03-13T19:54:23Z</time>
      </trkpt>
      <trkpt lat="44.65167" lon="3.19608">
        <ele>1130</ele>
        <time>2006-03-13T19:54:23Z</time>
      </trkpt>
      <trkpt lat="44.65221" lon="3.19618">
        <ele>1128</ele>
        <time>2006-03-13T19:54:23Z</time>
      </trkpt>
      <trkpt lat="44.65268" lon="3.19594">
        <ele>1132</ele>
        <time>2006-03-13T19:54:23Z</time>
      </trkpt>
      <trkpt lat="44.65293" lon="3.19594">
        <ele>1131</ele>
        <time>2006-03-13T19:54:23Z</time>
      </trkpt>
      <trkpt lat="44.65264" lon="3.19638">
        <ele>1126</ele>
        <time>2006-03-13T19:54:23Z</time>
      </trkpt>
      <trkpt lat="44.6523" lon="3.19659">
        <ele>1122</ele>
        <time>2006-03-13T19:54:23Z</time>
      </trkpt>
      <trkpt lat="44.65156" lon="3.19645">
        <ele>1123</ele>
        <time>2006-03-13T19:54:23Z</time>
      </trkpt>
      <trkpt lat="44.65076" lon="3.1977">
        <ele>1119</ele>
        <time>2006-03-13T19:54:23Z</time>
      </trkpt>
      <trkpt lat="44.6501" lon="3.19876">
        <ele>1122</ele>
        <time>2006-03-13T19:54:23Z</time>
      </trkpt>
      <trkpt lat="44.64964" lon="3.19954">
        <ele>1126</ele>
        <time>2006-03-13T19:54:23Z</time>
      </trkpt>
      <trkpt lat="44.64901" lon="3.20023">
        <ele>1129</ele>
        <time>2006-03-13T19:54:23Z</time>
      </trkpt>
      <trkpt lat="44.64884" lon="3.2017">
        <ele>1135</ele>
        <time>2006-03-13T19:54:23Z</time>
      </trkpt>
      <trkpt lat="44.64856" lon="3.20327">
        <ele>1139</ele>
        <time>2006-03-13T19:54:23Z</time>
      </trkpt>
      <trkpt lat="44.64807" lon="3.20484">
        <ele>1139</ele>
        <time>2006-03-13T19:54:23Z</time>
      </trkpt>
      <trkpt lat="44.64804" lon="3.20582">
        <ele>1139</ele>
        <time>2006-03-13T19:54:23Z</time>
      </trkpt>
      <trkpt lat="44.64749" lon="3.20682">
        <ele>1136</ele>
        <time>2006-03-13T19:54:23Z</time>
      </trkpt>
      <trkpt lat="44.64695" lon="3.20744">
        <ele>1127</ele>
        <time>2006-03-13T19:54:23Z</time>
      </trkpt>
      <trkpt lat="44.6463" lon="3.20762">
        <ele>1123</ele>
        <time>2006-03-13T19:54:23Z</time>
      </trkpt>
      <trkpt lat="44.6454" lon="3.20776">
        <ele>1126</ele>
        <time>2006-03-13T19:54:23Z</time>
      </trkpt>
      <trkpt lat="44.64497" lon="3.20775">
        <ele>1130</ele>
        <time>2006-03-13T19:54:23Z</time>
      </trkpt>
      <trkpt lat="44.64306" lon="3.21069">
        <ele>1146</ele>
        <time>2006-03-13T19:54:23Z</time>
      </trkpt>
      <trkpt lat="44.64249" lon="3.21175">
        <ele>1152</ele>
        <time>2006-03-13T19:54:23Z</time>
      </trkpt>
      <trkpt lat="44.64179" lon="3.21108">
        <ele>1151</ele>
        <time>2006-03-13T19:54:23Z</time>
      </trkpt>
      <trkpt lat="44.6409" lon="3.21078">
        <ele>1154</ele>
        <time>2006-03-13T19:54:23Z</time>
      </trkpt>
      <trkpt lat="44.63984" lon="3.21057">
        <ele>1158</ele>
        <time>2006-03-13T19:54:23Z</time>
      </trkpt>
      <trkpt lat="44.63894" lon="3.21084">
        <ele>1162</ele>
        <time>2006-03-13T19:54:23Z</time>
      </trkpt>
      <trkpt lat="44.63804" lon="3.21121">
        <ele>1164</ele>
        <time>2006-03-13T19:54:23Z</time>
      </trkpt>
      <trkpt lat="44.63725" lon="3.21119">
        <ele>1172</ele>
        <time>2006-03-13T19:54:23Z</time>
      </trkpt>
      <trkpt lat="44.63669" lon="3.21144">
        <ele>1173</ele>
        <time>2006-03-13T19:54:23Z</time>
      </trkpt>
      <trkpt lat="44.6361" lon="3.21221">
        <ele>1167</ele>
        <time>2006-03-13T19:54:23Z</time>
      </trkpt>
      <trkpt lat="44.63535" lon="3.21261">
        <ele>1167</ele>
        <time>2006-03-13T19:54:23Z</time>
      </trkpt>
      <trkpt lat="44.63466" lon="3.21251">
        <ele>1171</ele>
        <time>2006-03-13T19:54:23Z</time>
      </trkpt>
      <trkpt lat="44.6343" lon="3.21222">
        <ele>1175</ele>
        <time>2006-03-13T19:54:23Z</time>
      </trkpt>
      <trkpt lat="44.63398" lon="3.21215">
        <ele>1173</ele>
        <time>2006-03-13T19:54:23Z</time>
      </trkpt>
      <trkpt lat="44.63349" lon="3.21183">
        <ele>1171</ele>
        <time>2006-03-13T19:54:23Z</time>
      </trkpt>
      <trkpt lat="44.63309" lon="3.21157">
        <ele>1170</ele>
        <time>2006-03-13T19:54:23Z</time>
      </trkpt>
      <trkpt lat="44.63264" lon="3.21118">
        <ele>1172</ele>
        <time>2006-03-13T19:54:23Z</time>
      </trkpt>
      <trkpt lat="44.63235" lon="3.21064">
        <ele>1177</ele>
        <time>2006-03-13T19:54:23Z</time>
      </trkpt>
      <trkpt lat="44.63219" lon="3.21093">
        <ele>1173</ele>
        <time>2006-03-13T19:54:23Z</time>
      </trkpt>
      <trkpt lat="44.63188" lon="3.21073">
        <ele>1172</ele>
        <time>2006-03-13T19:54:23Z</time>
      </trkpt>
      <trkpt lat="44.63157" lon="3.21029">
        <ele>1171</ele>
        <time>2006-03-13T19:54:23Z</time>
      </trkpt>
      <trkpt lat="44.63112" lon="3.20971">
        <ele>1165</ele>
        <time>2006-03-13T19:54:23Z</time>
      </trkpt>
      <trkpt lat="44.63059" lon="3.20904">
        <ele>1162</ele>
        <time>2006-03-13T19:54:23Z</time>
      </trkpt>
      <trkpt lat="44.63036" lon="3.2092">
        <ele>1160</ele>
        <time>2006-03-13T19:54:23Z</time>
      </trkpt>
      <trkpt lat="44.63005" lon="3.20922">
        <ele>1158</ele>
        <time>2006-03-13T19:54:23Z</time>
      </trkpt>
      <trkpt lat="44.63" lon="3.20976">
        <ele>1156</ele>
        <time>2006-03-13T19:54:23Z</time>
      </trkpt>
      <trkpt lat="44.62964" lon="3.21032">
        <ele>1152</ele>
        <time>2006-03-13T19:54:23Z</time>
      </trkpt>
      <trkpt lat="44.62949" lon="3.21139">
        <ele>1151</ele>
        <time>2006-03-13T19:54:23Z</time>
      </trkpt>
      <trkpt lat="44.62909" lon="3.2116">
        <ele>1151</ele>
        <time>2006-03-13T19:54:23Z</time>
      </trkpt>
      <trkpt lat="44.62873" lon="3.21156">
        <ele>1149</ele>
        <time>2006-03-13T19:54:23Z</time>
      </trkpt>
      <trkpt lat="44.62848" lon="3.21169">
        <ele>1150</ele>
        <time>2006-03-13T19:54:23Z</time>
      </trkpt>
      <trkpt lat="44.62798" lon="3.21155">
        <ele>1152</ele>
        <time>2006-03-13T19:54:23Z</time>
      </trkpt>
      <trkpt lat="44.62765" lon="3.21133">
        <ele>1155</ele>
        <time>2006-03-13T19:54:23Z</time>
      </trkpt>
      <trkpt lat="44.62722" lon="3.21126">
        <ele>1158</ele>
        <time>2006-03-13T19:54:23Z</time>
      </trkpt>
      <trkpt lat="44.62686" lon="3.21157">
        <ele>1162</ele>
        <time>2006-03-13T19:54:23Z</time>
      </trkpt>
      <trkpt lat="44.62646" lon="3.21153">
        <ele>1164</ele>
        <time>2006-03-13T19:54:23Z</time>
      </trkpt>
      <trkpt lat="44.62619" lon="3.21112">
        <ele>1161</ele>
        <time>2006-03-13T19:54:23Z</time>
      </trkpt>
      <trkpt lat="44.62587" lon="3.21114">
        <ele>1163</ele>
        <time>2006-03-13T19:54:23Z</time>
      </trkpt>
      <trkpt lat="44.62558" lon="3.21164">
        <ele>1171</ele>
        <time>2006-03-13T19:54:23Z</time>
      </trkpt>
      <trkpt lat="44.62539" lon="3.21224">
        <ele>1179</ele>
        <time>2006-03-13T19:54:23Z</time>
      </trkpt>
      <trkpt lat="44.62503" lon="3.21245">
        <ele>1186</ele>
        <time>2006-03-13T19:54:23Z</time>
      </trkpt>
      <trkpt lat="44.62429" lon="3.21235">
        <ele>1195</ele>
        <time>2006-03-13T19:54:23Z</time>
      </trkpt>
      <trkpt lat="44.62407" lon="3.21234">
        <ele>1197</ele>
        <time>2006-03-13T19:54:23Z</time>
      </trkpt>
      <trkpt lat="44.62375" lon="3.21249">
        <ele>1204</ele>
        <time>2006-03-13T19:54:23Z</time>
      </trkpt>
      <trkpt lat="44.62333" lon="3.21208">
        <ele>1202</ele>
        <time>2006-03-13T19:54:23Z</time>
      </trkpt>
      <trkpt lat="44.62272" lon="3.21223">
        <ele>1210</ele>
        <time>2006-03-13T19:54:23Z</time>
      </trkpt>
      <trkpt lat="44.62211" lon="3.21269">
        <ele>1217</ele>
        <time>2006-03-13T19:54:23Z</time>
      </trkpt>
      <trkpt lat="44.62188" lon="3.21325">
        <ele>1219</ele>
        <time>2006-03-13T19:54:23Z</time>
      </trkpt>
      <trkpt lat="44.62137" lon="3.21438">
        <ele>1220</ele>
        <time>2006-03-13T19:54:23Z</time>
      </trkpt>
      <trkpt lat="44.62076" lon="3.2155">
        <ele>1224</ele>
        <time>2006-03-13T19:54:23Z</time>
      </trkpt>
      <trkpt lat="44.62012" lon="3.21685">
        <ele>1227</ele>
        <time>2006-03-13T19:54:23Z</time>
      </trkpt>
      <trkpt lat="44.61986" lon="3.2176">
        <ele>1225</ele>
        <time>2006-03-13T19:54:23Z</time>
      </trkpt>
      <trkpt lat="44.61912" lon="3.21749">
        <ele>1227</ele>
        <time>2006-03-13T19:54:23Z</time>
      </trkpt>
      <trkpt lat="44.61863" lon="3.21777">
        <ele>1227</ele>
        <time>2006-03-13T19:54:23Z</time>
      </trkpt>
      <trkpt lat="44.6179" lon="3.2181">
        <ele>1224</ele>
        <time>2006-03-13T19:54:23Z</time>
      </trkpt>
      <trkpt lat="44.61752" lon="3.2186">
        <ele>1226</ele>
        <time>2006-03-13T19:54:23Z</time>
      </trkpt>
      <trkpt lat="44.61731" lon="3.21951">
        <ele>1227</ele>
        <time>2006-03-13T19:54:23Z</time>
      </trkpt>
      <trkpt lat="44.61694" lon="3.22001">
        <ele>1231</ele>
        <time>2006-03-13T19:54:23Z</time>
      </trkpt>
      <trkpt lat="44.61647" lon="3.2206">
        <ele>1233</ele>
        <time>2006-03-13T19:54:23Z</time>
      </trkpt>
      <trkpt lat="44.61613" lon="3.22081">
        <ele>1235</ele>
        <time>2006-03-13T19:54:23Z</time>
      </trkpt>
      <trkpt lat="44.61557" lon="3.22087">
        <ele>1236</ele>
        <time>2006-03-13T19:54:23Z</time>
      </trkpt>
      <trkpt lat="44.61516" lon="3.22042">
        <ele>1236</ele>
        <time>2006-03-13T19:54:23Z</time>
      </trkpt>
      <trkpt lat="44.61474" lon="3.21997">
        <ele>1232</ele>
        <time>2006-03-13T19:54:23Z</time>
      </trkpt>
      <trkpt lat="44.61448" lon="3.21934">
        <ele>1231</ele>
        <time>2006-03-13T19:54:23Z</time>
      </trkpt>
      <trkpt lat="44.61396" lon="3.21933">
        <ele>1219</ele>
        <time>2006-03-13T19:54:23Z</time>
      </trkpt>
      <trkpt lat="44.61364" lon="3.2197">
        <ele>1217</ele>
        <time>2006-03-13T19:54:23Z</time>
      </trkpt>
      <trkpt lat="44.61333" lon="3.21948">
        <ele>1212</ele>
        <time>2006-03-13T19:54:23Z</time>
      </trkpt>
      <trkpt lat="44.61304" lon="3.21941">
        <ele>1211</ele>
        <time>2006-03-13T19:54:23Z</time>
      </trkpt>
      <trkpt lat="44.6122" lon="3.21993">
        <ele>1205</ele>
        <time>2006-03-13T19:54:23Z</time>
      </trkpt>
      <trkpt lat="44.61162" lon="3.21964">
        <ele>1196</ele>
        <time>2006-03-13T19:54:23Z</time>
      </trkpt>
      <trkpt lat="44.61045" lon="3.21915">
        <ele>1186</ele>
        <time>2006-03-13T19:54:23Z</time>
      </trkpt>
      <trkpt lat="44.61001" lon="3.21845">
        <ele>1179</ele>
        <time>2006-03-13T19:54:23Z</time>
      </trkpt>
      <trkpt lat="44.60945" lon="3.21791">
        <ele>1170</ele>
        <time>2006-03-13T19:54:23Z</time>
      </trkpt>
      <trkpt lat="44.60894" lon="3.21758">
        <ele>1163</ele>
        <time>2006-03-13T19:54:23Z</time>
      </trkpt>
      <trkpt lat="44.60838" lon="3.21635">
        <ele>1171</ele>
        <time>2006-03-13T19:54:23Z</time>
      </trkpt>
      <trkpt lat="44.6081" lon="3.21587">
        <ele>1166</ele>
        <time>2006-03-13T19:54:23Z</time>
      </trkpt>
      <trkpt lat="44.60781" lon="3.21486">
        <ele>1160</ele>
        <time>2006-03-13T19:54:23Z</time>
      </trkpt>
      <trkpt lat="44.60761" lon="3.21457">
        <ele>1160</ele>
        <time>2006-03-13T19:54:23Z</time>
      </trkpt>
      <trkpt lat="44.60744" lon="3.214">
        <ele>1163</ele>
        <time>2006-03-13T19:54:23Z</time>
      </trkpt>
      <trkpt lat="44.60724" lon="3.21337">
        <ele>1167</ele>
        <time>2006-03-13T19:54:23Z</time>
      </trkpt>
      <trkpt lat="44.60691" lon="3.2128">
        <ele>1173</ele>
        <time>2006-03-13T19:54:23Z</time>
      </trkpt>
      <trkpt lat="44.60635" lon="3.21197">
        <ele>1182</ele>
        <time>2006-03-13T19:54:23Z</time>
      </trkpt>
      <trkpt lat="44.60609" lon="3.21134">
        <ele>1184</ele>
        <time>2006-03-13T19:54:23Z</time>
      </trkpt>
      <trkpt lat="44.60573" lon="3.21045">
        <ele>1179</ele>
        <time>2006-03-13T19:54:23Z</time>
      </trkpt>
      <trkpt lat="44.60605" lon="3.21011">
        <ele>1182</ele>
        <time>2006-03-13T19:54:23Z</time>
      </trkpt>
      <trkpt lat="44.6056" lon="3.20966">
        <ele>1178</ele>
        <time>2006-03-13T19:54:23Z</time>
      </trkpt>
      <trkpt lat="44.60529" lon="3.20922">
        <ele>1176</ele>
        <time>2006-03-13T19:54:23Z</time>
      </trkpt>
      <trkpt lat="44.60476" lon="3.20867">
        <ele>1171</ele>
        <time>2006-03-13T19:54:23Z</time>
      </trkpt>
      <trkpt lat="44.604" lon="3.20835">
        <ele>1169</ele>
        <time>2006-03-13T19:54:23Z</time>
      </trkpt>
      <trkpt lat="44.60343" lon="3.2085">
        <ele>1167</ele>
        <time>2006-03-13T19:54:23Z</time>
      </trkpt>
      <trkpt lat="44.603" lon="3.20877">
        <ele>1165</ele>
        <time>2006-03-13T19:54:23Z</time>
      </trkpt>
      <trkpt lat="44.60265" lon="3.20855">
        <ele>1169</ele>
        <time>2006-03-13T19:54:23Z</time>
      </trkpt>
      <trkpt lat="44.60222" lon="3.20822">
        <ele>1171</ele>
        <time>2006-03-13T19:54:23Z</time>
      </trkpt>
      <trkpt lat="44.60211" lon="3.20766">
        <ele>1176</ele>
        <time>2006-03-13T19:54:23Z</time>
      </trkpt>
      <trkpt lat="44.602" lon="3.20721">
        <ele>1179</ele>
        <time>2006-03-13T19:54:23Z</time>
      </trkpt>
      <trkpt lat="44.60232" lon="3.20668">
        <ele>1181</ele>
        <time>2006-03-13T19:54:23Z</time>
      </trkpt>
      <trkpt lat="44.60262" lon="3.20634">
        <ele>1183</ele>
        <time>2006-03-13T19:54:23Z</time>
      </trkpt>
      <trkpt lat="44.60242" lon="3.20549">
        <ele>1180</ele>
        <time>2006-03-13T19:54:23Z</time>
      </trkpt>
      <trkpt lat="44.60223" lon="3.20479">
        <ele>1176</ele>
        <time>2006-03-13T19:54:23Z</time>
      </trkpt>
      <trkpt lat="44.60148" lon="3.20475">
        <ele>1170</ele>
        <time>2006-03-13T19:54:23Z</time>
      </trkpt>
      <trkpt lat="44.6009" lon="3.20418">
        <ele>1168</ele>
        <time>2006-03-13T19:54:23Z</time>
      </trkpt>
      <trkpt lat="44.60021" lon="3.20398">
        <ele>1167</ele>
        <time>2006-03-13T19:54:23Z</time>
      </trkpt>
      <trkpt lat="44.59961" lon="3.2034">
        <ele>1169</ele>
        <time>2006-03-13T19:54:23Z</time>
      </trkpt>
      <trkpt lat="44.59887" lon="3.20232">
        <ele>1179</ele>
        <time>2006-03-13T19:54:23Z</time>
      </trkpt>
      <trkpt lat="44.59854" lon="3.20197">
        <ele>1184</ele>
        <time>2006-03-13T19:54:23Z</time>
      </trkpt>
      <trkpt lat="44.59782" lon="3.20114">
        <ele>1197</ele>
        <time>2006-03-13T19:54:23Z</time>
      </trkpt>
      <trkpt lat="44.59738" lon="3.20012">
        <ele>1203</ele>
        <time>2006-03-13T19:54:23Z</time>
      </trkpt>
      <trkpt lat="44.5973" lon="3.19896">
        <ele>1210</ele>
        <time>2006-03-13T19:54:23Z</time>
      </trkpt>
      <trkpt lat="44.59752" lon="3.19751">
        <ele>1224</ele>
        <time>2006-03-13T19:54:23Z</time>
      </trkpt>
      <trkpt lat="44.59732" lon="3.19691">
        <ele>1231</ele>
        <time>2006-03-13T19:54:23Z</time>
      </trkpt>
      <trkpt lat="44.59667" lon="3.19649">
        <ele>1243</ele>
        <time>2006-03-13T19:54:23Z</time>
      </trkpt>
      <trkpt lat="44.59609" lon="3.19633">
        <ele>1248</ele>
        <time>2006-03-13T19:54:23Z</time>
      </trkpt>
      <trkpt lat="44.59526" lon="3.19543">
        <ele>1254</ele>
        <time>2006-03-13T19:54:23Z</time>
      </trkpt>
      <trkpt lat="44.59475" lon="3.19483">
        <ele>1259</ele>
        <time>2006-03-13T19:54:23Z</time>
      </trkpt>
      <trkpt lat="44.59412" lon="3.19416">
        <ele>1264</ele>
        <time>2006-03-13T19:54:23Z</time>
      </trkpt>
      <trkpt lat="44.5937" lon="3.19359">
        <ele>1266</ele>
        <time>2006-03-13T19:54:23Z</time>
      </trkpt>
      <trkpt lat="44.5938" lon="3.19201">
        <ele>1259</ele>
        <time>2006-03-13T19:54:23Z</time>
      </trkpt>
      <trkpt lat="44.59379" lon="3.19063">
        <ele>1253</ele>
        <time>2006-03-13T19:54:23Z</time>
      </trkpt>
      <trkpt lat="44.59375" lon="3.18968">
        <ele>1250</ele>
        <time>2006-03-13T19:54:23Z</time>
      </trkpt>
      <trkpt lat="44.59344" lon="3.18908">
        <ele>1250</ele>
        <time>2006-03-13T19:54:23Z</time>
      </trkpt>
      <trkpt lat="44.59269" lon="3.18803">
        <ele>1247</ele>
        <time>2006-03-13T19:54:23Z</time>
      </trkpt>
      <trkpt lat="44.59189" lon="3.18689">
        <ele>1255</ele>
        <time>2006-03-13T19:54:23Z</time>
      </trkpt>
      <trkpt lat="44.59097" lon="3.18577">
        <ele>1257</ele>
        <time>2006-03-13T19:54:23Z</time>
      </trkpt>
      <trkpt lat="44.5906" lon="3.18482">
        <ele>1250</ele>
        <time>2006-03-13T19:54:23Z</time>
      </trkpt>
      <trkpt lat="44.59052" lon="3.18328">
        <ele>1235</ele>
        <time>2006-03-13T19:54:23Z</time>
      </trkpt>
      <trkpt lat="44.59026" lon="3.18246">
        <ele>1226</ele>
        <time>2006-03-13T19:54:23Z</time>
      </trkpt>
      <trkpt lat="44.59006" lon="3.18176">
        <ele>1224</ele>
        <time>2006-03-13T19:54:23Z</time>
      </trkpt>
      <trkpt lat="44.59007" lon="3.18085">
        <ele>1228</ele>
        <time>2006-03-13T19:54:23Z</time>
      </trkpt>
      <trkpt lat="44.59007" lon="3.18063">
        <ele>1230</ele>
        <time>2006-03-13T19:54:23Z</time>
      </trkpt>
      <trkpt lat="44.58964" lon="3.18059">
        <ele>1235</ele>
        <time>2006-03-13T19:54:23Z</time>
      </trkpt>
      <trkpt lat="44.58929" lon="3.18005">
        <ele>1245</ele>
        <time>2006-03-13T19:54:23Z</time>
      </trkpt>
      <trkpt lat="44.58887" lon="3.1792">
        <ele>1253</ele>
        <time>2006-03-13T19:54:23Z</time>
      </trkpt>
      <trkpt lat="44.58853" lon="3.17872">
        <ele>1252</ele>
        <time>2006-03-13T19:54:23Z</time>
      </trkpt>
      <trkpt lat="44.58815" lon="3.17852">
        <ele>1250</ele>
        <time>2006-03-13T19:54:23Z</time>
      </trkpt>
      <trkpt lat="44.58708" lon="3.17788">
        <ele>1243</ele>
        <time>2006-03-13T19:54:23Z</time>
      </trkpt>
      <trkpt lat="44.58643" lon="3.17711">
        <ele>1240</ele>
        <time>2006-03-13T19:54:23Z</time>
      </trkpt>
      <trkpt lat="44.58565" lon="3.17654">
        <ele>1240</ele>
        <time>2006-03-13T19:54:23Z</time>
      </trkpt>
      <trkpt lat="44.58498" lon="3.17609">
        <ele>1241</ele>
        <time>2006-03-13T19:54:23Z</time>
      </trkpt>
      <trkpt lat="44.58413" lon="3.17532">
        <ele>1239</ele>
        <time>2006-03-13T19:54:23Z</time>
      </trkpt>
      <trkpt lat="44.58353" lon="3.17377">
        <ele>1233</ele>
        <time>2006-03-13T19:54:23Z</time>
      </trkpt>
      <trkpt lat="44.58336" lon="3.1731">
        <ele>1233</ele>
        <time>2006-03-13T19:54:23Z</time>
      </trkpt>
      <trkpt lat="44.58323" lon="3.17213">
        <ele>1236</ele>
        <time>2006-03-13T19:54:23Z</time>
      </trkpt>
      <trkpt lat="44.58288" lon="3.17137">
        <ele>1242</ele>
        <time>2006-03-13T19:54:23Z</time>
      </trkpt>
      <trkpt lat="44.58259" lon="3.1702">
        <ele>1248</ele>
        <time>2006-03-13T19:54:23Z</time>
      </trkpt>
      <trkpt lat="44.58217" lon="3.16937">
        <ele>1246</ele>
        <time>2006-03-13T19:54:23Z</time>
      </trkpt>
      <trkpt lat="44.58187" lon="3.16811">
        <ele>1242</ele>
        <time>2006-03-13T19:54:23Z</time>
      </trkpt>
      <trkpt lat="44.58167" lon="3.1672">
        <ele>1242</ele>
        <time>2006-03-13T19:54:23Z</time>
      </trkpt>
      <trkpt lat="44.58125" lon="3.16625">
        <ele>1236</ele>
        <time>2006-03-13T19:54:23Z</time>
      </trkpt>
      <trkpt lat="44.58081" lon="3.16514">
        <ele>1227</ele>
        <time>2006-03-13T19:54:23Z</time>
      </trkpt>
      <trkpt lat="44.58065" lon="3.16492">
        <ele>1224</ele>
        <time>2006-03-13T19:54:23Z</time>
      </trkpt>
      <trkpt lat="44.58087" lon="3.16338">
        <ele>1217</ele>
        <time>2006-03-13T19:54:23Z</time>
      </trkpt>
      <trkpt lat="44.58088" lon="3.16243">
        <ele>1211</ele>
        <time>2006-03-13T19:54:23Z</time>
      </trkpt>
      <trkpt lat="44.58068" lon="3.16152">
        <ele>1206</ele>
        <time>2006-03-13T19:54:23Z</time>
      </trkpt>
      <trkpt lat="44.58048" lon="3.16111">
        <ele>1204</ele>
        <time>2006-03-13T19:54:23Z</time>
      </trkpt>
      <trkpt lat="44.58014" lon="3.16123">
        <ele>1199</ele>
        <time>2006-03-13T19:54:23Z</time>
      </trkpt>
      <trkpt lat="44.58001" lon="3.16113">
        <ele>1197</ele>
        <time>2006-03-13T19:54:23Z</time>
      </trkpt>
      <trkpt lat="44.57965" lon="3.16078">
        <ele>1191</ele>
        <time>2006-03-13T19:54:23Z</time>
      </trkpt>
      <trkpt lat="44.57954" lon="3.15999">
        <ele>1189</ele>
        <time>2006-03-13T19:54:23Z</time>
      </trkpt>
      <trkpt lat="44.57926" lon="3.15951">
        <ele>1186</ele>
        <time>2006-03-13T19:54:23Z</time>
      </trkpt>
      <trkpt lat="44.5789" lon="3.15926">
        <ele>1186</ele>
        <time>2006-03-13T19:54:23Z</time>
      </trkpt>
      <trkpt lat="44.57872" lon="3.15904">
        <ele>1189</ele>
        <time>2006-03-13T19:54:23Z</time>
      </trkpt>
      <trkpt lat="44.57852" lon="3.159">
        <ele>1188</ele>
        <time>2006-03-13T19:54:23Z</time>
      </trkpt>
      <trkpt lat="44.57832" lon="3.1584">
        <ele>1191</ele>
        <time>2006-03-13T19:54:23Z</time>
      </trkpt>
      <trkpt lat="44.57803" lon="3.15799">
        <ele>1186</ele>
        <time>2006-03-13T19:54:23Z</time>
      </trkpt>
      <trkpt lat="44.57795" lon="3.15745">
        <ele>1184</ele>
        <time>2006-03-13T19:54:23Z</time>
      </trkpt>
      <trkpt lat="44.57795" lon="3.1572">
        <ele>1183</ele>
        <time>2006-03-13T19:54:23Z</time>
      </trkpt>
      <trkpt lat="44.57757" lon="3.15713">
        <ele>1175</ele>
        <time>2006-03-13T19:54:23Z</time>
      </trkpt>
      <trkpt lat="44.57741" lon="3.15703">
        <ele>1171</ele>
        <time>2006-03-13T19:54:23Z</time>
      </trkpt>
      <trkpt lat="44.57721" lon="3.15659">
        <ele>1169</ele>
        <time>2006-03-13T19:54:23Z</time>
      </trkpt>
      <trkpt lat="44.57676" lon="3.15658">
        <ele>1166</ele>
        <time>2006-03-13T19:54:23Z</time>
      </trkpt>
      <trkpt lat="44.57604" lon="3.15701">
        <ele>1168</ele>
        <time>2006-03-13T19:54:23Z</time>
      </trkpt>
      <trkpt lat="44.57565" lon="3.15742">
        <ele>1171</ele>
        <time>2006-03-13T19:54:23Z</time>
      </trkpt>
      <trkpt lat="44.57526" lon="3.15807">
        <ele>1174</ele>
        <time>2006-03-13T19:54:23Z</time>
      </trkpt>
      <trkpt lat="44.57485" lon="3.15882">
        <ele>1174</ele>
        <time>2006-03-13T19:54:23Z</time>
      </trkpt>
      <trkpt lat="44.57442" lon="3.15966">
        <ele>1172</ele>
        <time>2006-03-13T19:54:23Z</time>
      </trkpt>
      <trkpt lat="44.57374" lon="3.16022">
        <ele>1177</ele>
        <time>2006-03-13T19:54:23Z</time>
      </trkpt>
      <trkpt lat="44.57306" lon="3.16097">
        <ele>1184</ele>
        <time>2006-03-13T19:54:23Z</time>
      </trkpt>
      <trkpt lat="44.57258" lon="3.16168">
        <ele>1190</ele>
        <time>2006-03-13T19:54:23Z</time>
      </trkpt>
      <trkpt lat="44.57226" lon="3.16253">
        <ele>1194</ele>
        <time>2006-03-13T19:54:23Z</time>
      </trkpt>
      <trkpt lat="44.5721" lon="3.16359">
        <ele>1198</ele>
        <time>2006-03-13T19:54:23Z</time>
      </trkpt>
      <trkpt lat="44.57205" lon="3.16432">
        <ele>1202</ele>
        <time>2006-03-13T19:54:23Z</time>
      </trkpt>
      <trkpt lat="44.57176" lon="3.16365">
        <ele>1209</ele>
        <time>2006-03-13T19:54:23Z</time>
      </trkpt>
      <trkpt lat="44.57143" lon="3.1628">
        <ele>1215</ele>
        <time>2006-03-13T19:54:23Z</time>
      </trkpt>
      <trkpt lat="44.57114" lon="3.16201">
        <ele>1220</ele>
        <time>2006-03-13T19:54:23Z</time>
      </trkpt>
      <trkpt lat="44.57083" lon="3.16178">
        <ele>1224</ele>
        <time>2006-03-13T19:54:23Z</time>
      </trkpt>
      <trkpt lat="44.56941" lon="3.16192">
        <ele>1237</ele>
        <time>2006-03-13T19:54:23Z</time>
      </trkpt>
      <trkpt lat="44.56822" lon="3.16247">
        <ele>1245</ele>
        <time>2006-03-13T19:54:23Z</time>
      </trkpt>
      <trkpt lat="44.56699" lon="3.16355">
        <ele>1257</ele>
        <time>2006-03-13T19:54:23Z</time>
      </trkpt>
      <trkpt lat="44.56623" lon="3.16417">
        <ele>1263</ele>
        <time>2006-03-13T19:54:23Z</time>
      </trkpt>
      <trkpt lat="44.56578" lon="3.16391">
        <ele>1264</ele>
        <time>2006-03-13T19:54:23Z</time>
      </trkpt>
      <trkpt lat="44.5649" lon="3.16371">
        <ele>1286</ele>
        <time>2006-03-13T19:54:23Z</time>
      </trkpt>
      <trkpt lat="44.56416" lon="3.16363">
        <ele>1311</ele>
        <time>2006-03-13T19:54:23Z</time>
      </trkpt>
      <trkpt lat="44.56347" lon="3.16325">
        <ele>1321</ele>
        <time>2006-03-13T19:54:23Z</time>
      </trkpt>
      <trkpt lat="44.56264" lon="3.16283">
        <ele>1332</ele>
        <time>2006-03-13T19:54:23Z</time>
      </trkpt>
      <trkpt lat="44.56181" lon="3.1625">
        <ele>1345</ele>
        <time>2006-03-13T19:54:23Z</time>
      </trkpt>
      <trkpt lat="44.56114" lon="3.16224">
        <ele>1353</ele>
        <time>2006-03-13T19:54:23Z</time>
      </trkpt>
      <trkpt lat="44.56022" lon="3.16194">
        <ele>1353</ele>
        <time>2006-03-13T19:54:23Z</time>
      </trkpt>
      <trkpt lat="44.55925" lon="3.16161">
        <ele>1352</ele>
        <time>2006-03-13T19:54:23Z</time>
      </trkpt>
      <trkpt lat="44.55885" lon="3.16154">
        <ele>1355</ele>
        <time>2006-03-13T19:54:23Z</time>
      </trkpt>
      <trkpt lat="44.55847" lon="3.16081">
        <ele>1356</ele>
        <time>2006-03-13T19:54:23Z</time>
      </trkpt>
      <trkpt lat="44.55801" lon="3.15993">
        <ele>1356</ele>
        <time>2006-03-13T19:54:23Z</time>
      </trkpt>
      <trkpt lat="44.55779" lon="3.15885">
        <ele>1356</ele>
        <time>2006-03-13T19:54:23Z</time>
      </trkpt>
      <trkpt lat="44.5579" lon="3.15848">
        <ele>1358</ele>
        <time>2006-03-13T19:54:23Z</time>
      </trkpt>
      <trkpt lat="44.5584" lon="3.15795">
        <ele>1358</ele>
        <time>2006-03-13T19:54:23Z</time>
      </trkpt>
      <trkpt lat="44.55824" lon="3.15506">
        <ele>1364</ele>
        <time>2006-03-13T19:54:23Z</time>
      </trkpt>
      <trkpt lat="44.55909" lon="3.15258">
        <ele>1367</ele>
        <time>2006-03-13T19:54:23Z</time>
      </trkpt>
      <trkpt lat="44.56011" lon="3.14958">
        <ele>1368</ele>
        <time>2006-03-13T19:54:23Z</time>
      </trkpt>
      <trkpt lat="44.5605" lon="3.14767">
        <ele>1366</ele>
        <time>2006-03-13T19:54:23Z</time>
      </trkpt>
      <trkpt lat="44.56099" lon="3.14598">
        <ele>1365</ele>
        <time>2006-03-13T19:54:23Z</time>
      </trkpt>
      <trkpt lat="44.56169" lon="3.14504">
        <ele>1365</ele>
        <time>2006-03-13T19:54:23Z</time>
      </trkpt>
      <trkpt lat="44.56224" lon="3.14376">
        <ele>1374</ele>
        <time>2006-03-13T19:54:23Z</time>
      </trkpt>
      <trkpt lat="44.56335" lon="3.14205">
        <ele>1380</ele>
        <time>2006-03-13T19:54:23Z</time>
      </trkpt>
      <trkpt lat="44.56386" lon="3.14073">
        <ele>1385</ele>
        <time>2006-03-13T19:54:23Z</time>
      </trkpt>
      <trkpt lat="44.56393" lon="3.14007">
        <ele>1389</ele>
        <time>2006-03-13T19:54:23Z</time>
      </trkpt>
      <trkpt lat="44.5641" lon="3.13894">
        <ele>1390</ele>
        <time>2006-03-13T19:54:23Z</time>
      </trkpt>
      <trkpt lat="44.56449" lon="3.13775">
        <ele>1391</ele>
        <time>2006-03-13T19:54:23Z</time>
      </trkpt>
      <trkpt lat="44.56504" lon="3.136">
        <ele>1391</ele>
        <time>2006-03-13T19:54:23Z</time>
      </trkpt>
      <trkpt lat="44.56486" lon="3.1354">
        <ele>1390</ele>
        <time>2006-03-13T19:54:23Z</time>
      </trkpt>
      <trkpt lat="44.56512" lon="3.13456">
        <ele>1390</ele>
        <time>2006-03-13T19:54:23Z</time>
      </trkpt>
      <trkpt lat="44.5651" lon="3.13405">
        <ele>1390</ele>
        <time>2006-03-13T19:54:23Z</time>
      </trkpt>
      <trkpt lat="44.56562" lon="3.13346">
        <ele>1391</ele>
        <time>2006-03-13T19:54:23Z</time>
      </trkpt>
      <trkpt lat="44.56632" lon="3.1325">
        <ele>1394</ele>
        <time>2006-03-13T19:54:23Z</time>
      </trkpt>
      <trkpt lat="44.5673" lon="3.13069">
        <ele>1395</ele>
        <time>2006-03-13T19:54:23Z</time>
      </trkpt>
      <trkpt lat="44.56797" lon="3.12865">
        <ele>1391</ele>
        <time>2006-03-13T19:54:23Z</time>
      </trkpt>
      <trkpt lat="44.56883" lon="3.12734">
        <ele>1384</ele>
        <time>2006-03-13T19:54:23Z</time>
      </trkpt>
      <trkpt lat="44.56927" lon="3.12615">
        <ele>1373</ele>
        <time>2006-03-13T19:54:23Z</time>
      </trkpt>
      <trkpt lat="44.56952" lon="3.12521">
        <ele>1363</ele>
        <time>2006-03-13T19:54:23Z</time>
      </trkpt>
      <trkpt lat="44.56975" lon="3.12481">
        <ele>1360</ele>
        <time>2006-03-13T19:54:23Z</time>
      </trkpt>
      <trkpt lat="44.57011" lon="3.1245">
        <ele>1357</ele>
        <time>2006-03-13T19:54:23Z</time>
      </trkpt>
      <trkpt lat="44.57046" lon="3.12394">
        <ele>1353</ele>
        <time>2006-03-13T19:54:23Z</time>
      </trkpt>
      <trkpt lat="44.57097" lon="3.12372">
        <ele>1351</ele>
        <time>2006-03-13T19:54:23Z</time>
      </trkpt>
      <trkpt lat="44.57131" lon="3.12348">
        <ele>1348</ele>
        <time>2006-03-13T19:54:23Z</time>
      </trkpt>
      <trkpt lat="44.57145" lon="3.12288">
        <ele>1346</ele>
        <time>2006-03-13T19:54:23Z</time>
      </trkpt>
      <trkpt lat="44.57146" lon="3.12235">
        <ele>1344</ele>
        <time>2006-03-13T19:54:23Z</time>
      </trkpt>
      <trkpt lat="44.57164" lon="3.12191">
        <ele>1342</ele>
        <time>2006-03-13T19:54:23Z</time>
      </trkpt>
      <trkpt lat="44.57196" lon="3.12116">
        <ele>1338</ele>
        <time>2006-03-13T19:54:23Z</time>
      </trkpt>
      <trkpt lat="44.57203" lon="3.1205">
        <ele>1333</ele>
        <time>2006-03-13T19:54:23Z</time>
      </trkpt>
      <trkpt lat="44.57184" lon="3.11958">
        <ele>1331</ele>
        <time>2006-03-13T19:54:23Z</time>
      </trkpt>
      <trkpt lat="44.57177" lon="3.11873">
        <ele>1327</ele>
        <time>2006-03-13T19:54:23Z</time>
      </trkpt>
      <trkpt lat="44.5716" lon="3.11807">
        <ele>1325</ele>
        <time>2006-03-13T19:54:23Z</time>
      </trkpt>
      <trkpt lat="44.57138" lon="3.11775">
        <ele>1326</ele>
        <time>2006-03-13T19:54:23Z</time>
      </trkpt>
      <trkpt lat="44.57145" lon="3.11741">
        <ele>1325</ele>
        <time>2006-03-13T19:54:23Z</time>
      </trkpt>
      <trkpt lat="44.57201" lon="3.11694">
        <ele>1322</ele>
        <time>2006-03-13T19:54:23Z</time>
      </trkpt>
      <trkpt lat="44.57219" lon="3.11644">
        <ele>1324</ele>
        <time>2006-03-13T19:54:23Z</time>
      </trkpt>
      <trkpt lat="44.57259" lon="3.11532">
        <ele>1332</ele>
        <time>2006-03-13T19:54:23Z</time>
      </trkpt>
      <trkpt lat="44.57281" lon="3.11472">
        <ele>1335</ele>
        <time>2006-03-13T19:54:23Z</time>
      </trkpt>
      <trkpt lat="44.57352" lon="3.11376">
        <ele>1343</ele>
        <time>2006-03-13T19:54:23Z</time>
      </trkpt>
      <trkpt lat="44.5739" lon="3.1131">
        <ele>1347</ele>
        <time>2006-03-13T19:54:23Z</time>
      </trkpt>
      <trkpt lat="44.57423" lon="3.11213">
        <ele>1351</ele>
        <time>2006-03-13T19:54:23Z</time>
      </trkpt>
      <trkpt lat="44.57448" lon="3.11125">
        <ele>1354</ele>
        <time>2006-03-13T19:54:23Z</time>
      </trkpt>
      <trkpt lat="44.57453" lon="3.11056">
        <ele>1360</ele>
        <time>2006-03-13T19:54:23Z</time>
      </trkpt>
      <trkpt lat="44.5744" lon="3.10974">
        <ele>1365</ele>
        <time>2006-03-13T19:54:23Z</time>
      </trkpt>
      <trkpt lat="44.57436" lon="3.10892">
        <ele>1370</ele>
        <time>2006-03-13T19:54:23Z</time>
      </trkpt>
      <trkpt lat="44.57428" lon="3.10804">
        <ele>1374</ele>
        <time>2006-03-13T19:54:23Z</time>
      </trkpt>
      <trkpt lat="44.57419" lon="3.10729">
        <ele>1375</ele>
        <time>2006-03-13T19:54:23Z</time>
      </trkpt>
      <trkpt lat="44.57406" lon="3.10687">
        <ele>1376</ele>
        <time>2006-03-13T19:54:23Z</time>
      </trkpt>
      <trkpt lat="44.57382" lon="3.10653">
        <ele>1376</ele>
        <time>2006-03-13T19:54:23Z</time>
      </trkpt>
      <trkpt lat="44.574" lon="3.10587">
        <ele>1368</ele>
        <time>2006-03-13T19:54:23Z</time>
      </trkpt>
      <trkpt lat="44.57486" lon="3.10248">
        <ele>1346</ele>
        <time>2006-03-13T19:54:23Z</time>
      </trkpt>
      <trkpt lat="44.57569" lon="3.09903">
        <ele>1318</ele>
        <time>2006-03-13T19:54:23Z</time>
      </trkpt>
      <trkpt lat="44.57595" lon="3.09784">
        <ele>1313</ele>
        <time>2006-03-13T19:54:23Z</time>
      </trkpt>
      <trkpt lat="44.57591" lon="3.0968">
        <ele>1314</ele>
        <time>2006-03-13T19:54:23Z</time>
      </trkpt>
      <trkpt lat="44.57587" lon="3.09551">
        <ele>1317</ele>
        <time>2006-03-13T19:54:23Z</time>
      </trkpt>
      <trkpt lat="44.57583" lon="3.09473">
        <ele>1321</ele>
        <time>2006-03-13T19:54:23Z</time>
      </trkpt>
      <trkpt lat="44.57597" lon="3.09407">
        <ele>1326</ele>
        <time>2006-03-13T19:54:23Z</time>
      </trkpt>
      <trkpt lat="44.57616" lon="3.09322">
        <ele>1333</ele>
        <time>2006-03-13T19:54:23Z</time>
      </trkpt>
      <trkpt lat="44.57616" lon="3.09243">
        <ele>1340</ele>
        <time>2006-03-13T19:54:23Z</time>
      </trkpt>
      <trkpt lat="44.57642" lon="3.09149">
        <ele>1346</ele>
        <time>2006-03-13T19:54:23Z</time>
      </trkpt>
      <trkpt lat="44.57671" lon="3.09084">
        <ele>1351</ele>
        <time>2006-03-13T19:54:23Z</time>
      </trkpt>
      <trkpt lat="44.57735" lon="3.09034">
        <ele>1356</ele>
        <time>2006-03-13T19:54:23Z</time>
      </trkpt>
      <trkpt lat="44.57805" lon="3.08969">
        <ele>1360</ele>
        <time>2006-03-13T19:54:23Z</time>
      </trkpt>
      <trkpt lat="44.57846" lon="3.08863">
        <ele>1370</ele>
        <time>2006-03-13T19:54:23Z</time>
      </trkpt>
      <trkpt lat="44.57883" lon="3.08725">
        <ele>1382</ele>
        <time>2006-03-13T19:54:23Z</time>
      </trkpt>
      <trkpt lat="44.5789" lon="3.08674">
        <ele>1386</ele>
        <time>2006-03-13T19:54:23Z</time>
      </trkpt>
      <trkpt lat="44.57835" lon="3.0845">
        <ele>1391</ele>
        <time>2006-03-13T19:54:23Z</time>
      </trkpt>
      <trkpt lat="44.57776" lon="3.08261">
        <ele>1392</ele>
        <time>2006-03-13T19:54:23Z</time>
      </trkpt>
      <trkpt lat="44.57738" lon="3.08163">
        <ele>1398</ele>
        <time>2006-03-13T19:54:23Z</time>
      </trkpt>
      <trkpt lat="44.57709" lon="3.07911">
        <ele>1404</ele>
        <time>2006-03-13T19:54:23Z</time>
      </trkpt>
      <trkpt lat="44.57696" lon="3.07697">
        <ele>1401</ele>
        <time>2006-03-13T19:54:23Z</time>
      </trkpt>
      <trkpt lat="44.57684" lon="3.07505">
        <ele>1400</ele>
        <time>2006-03-13T19:54:23Z</time>
      </trkpt>
      <trkpt lat="44.57674" lon="3.07353">
        <ele>1396</ele>
        <time>2006-03-13T19:54:23Z</time>
      </trkpt>
      <trkpt lat="44.57677" lon="3.07215">
        <ele>1394</ele>
        <time>2006-03-13T19:54:23Z</time>
      </trkpt>
      <trkpt lat="44.57683" lon="3.07042">
        <ele>1388</ele>
        <time>2006-03-13T19:54:23Z</time>
      </trkpt>
      <trkpt lat="44.577" lon="3.06888">
        <ele>1385</ele>
        <time>2006-03-13T19:54:23Z</time>
      </trkpt>
      <trkpt lat="44.57745" lon="3.06769">
        <ele>1379</ele>
        <time>2006-03-13T19:54:23Z</time>
      </trkpt>
      <trkpt lat="44.57741" lon="3.06703">
        <ele>1379</ele>
        <time>2006-03-13T19:54:23Z</time>
      </trkpt>
      <trkpt lat="44.57735" lon="3.06621">
        <ele>1378</ele>
        <time>2006-03-13T19:54:23Z</time>
      </trkpt>
      <trkpt lat="44.5774" lon="3.06558">
        <ele>1378</ele>
        <time>2006-03-13T19:54:23Z</time>
      </trkpt>
      <trkpt lat="44.57783" lon="3.06487">
        <ele>1376</ele>
        <time>2006-03-13T19:54:23Z</time>
      </trkpt>
      <trkpt lat="44.57802" lon="3.06402">
        <ele>1375</ele>
        <time>2006-03-13T19:54:23Z</time>
      </trkpt>
      <trkpt lat="44.57865" lon="3.06296">
        <ele>1371</ele>
        <time>2006-03-13T19:54:23Z</time>
      </trkpt>
      <trkpt lat="44.57911" lon="3.06177">
        <ele>1368</ele>
        <time>2006-03-13T19:54:23Z</time>
      </trkpt>
      <trkpt lat="44.57979" lon="3.0609">
        <ele>1365</ele>
        <time>2006-03-13T19:54:23Z</time>
      </trkpt>
      <trkpt lat="44.58099" lon="3.06006">
        <ele>1362</ele>
        <time>2006-03-13T19:54:23Z</time>
      </trkpt>
      <trkpt lat="44.58216" lon="3.05917">
        <ele>1364</ele>
        <time>2006-03-13T19:54:23Z</time>
      </trkpt>
      <trkpt lat="44.5832" lon="3.05849">
        <ele>1371</ele>
        <time>2006-03-13T19:54:23Z</time>
      </trkpt>
      <trkpt lat="44.58558" lon="3.05672">
        <ele>1366</ele>
        <time>2006-03-13T19:54:23Z</time>
      </trkpt>
      <trkpt lat="44.58704" lon="3.05564">
        <ele>1360</ele>
        <time>2006-03-13T19:54:23Z</time>
      </trkpt>
      <trkpt lat="44.58893" lon="3.0528">
        <ele>1356</ele>
        <time>2006-03-13T19:54:23Z</time>
      </trkpt>
      <trkpt lat="44.59015" lon="3.05102">
        <ele>1349</ele>
        <time>2006-03-13T19:54:23Z</time>
      </trkpt>
      <trkpt lat="44.59171" lon="3.04761">
        <ele>1333</ele>
        <time>2006-03-13T19:54:23Z</time>
      </trkpt>
      <trkpt lat="44.59351" lon="3.04323">
        <ele>1321</ele>
        <time>2006-03-13T19:54:23Z</time>
      </trkpt>
      <trkpt lat="44.59525" lon="3.03894">
        <ele>1333</ele>
        <time>2006-03-13T19:54:23Z</time>
      </trkpt>
      <trkpt lat="44.59633" lon="3.03512">
        <ele>1348</ele>
        <time>2006-03-13T19:54:23Z</time>
      </trkpt>
      <trkpt lat="44.59662" lon="3.0344">
        <ele>1350</ele>
        <time>2006-03-13T19:54:23Z</time>
      </trkpt>
      <trkpt lat="44.59722" lon="3.03292">
        <ele>1347</ele>
        <time>2006-03-13T19:54:23Z</time>
      </trkpt>
      <trkpt lat="44.59785" lon="3.03202">
        <ele>1343</ele>
        <time>2006-03-13T19:54:23Z</time>
      </trkpt>
      <trkpt lat="44.59882" lon="3.03172">
        <ele>1335</ele>
        <time>2006-03-13T19:54:23Z</time>
      </trkpt>
      <trkpt lat="44.60015" lon="3.03151">
        <ele>1319</ele>
        <time>2006-03-13T19:54:23Z</time>
      </trkpt>
      <trkpt lat="44.60085" lon="3.03083">
        <ele>1316</ele>
        <time>2006-03-13T19:54:23Z</time>
      </trkpt>
      <trkpt lat="44.60162" lon="3.02983">
        <ele>1314</ele>
        <time>2006-03-13T19:54:23Z</time>
      </trkpt>
      <trkpt lat="44.60196" lon="3.0298">
        <ele>1315</ele>
        <time>2006-03-13T19:54:23Z</time>
      </trkpt>
      <trkpt lat="44.60272" lon="3.03016">
        <ele>1318</ele>
        <time>2006-03-13T19:54:23Z</time>
      </trkpt>
      <trkpt lat="44.60265" lon="3.03013">
        <ele>1318</ele>
      </trkpt>
      <trkpt lat="44.60249" lon="3.03145">
        <ele>1312</ele>
      </trkpt>
      <trkpt lat="44.60362" lon="3.03105">
        <ele>1311</ele>
      </trkpt>
      <trkpt lat="44.60507" lon="3.03161">
        <ele>1306</ele>
      </trkpt>
      <trkpt lat="44.60709" lon="3.03286">
        <ele>1305</ele>
      </trkpt>
      <trkpt lat="44.60801" lon="3.03344">
        <ele>1303</ele>
      </trkpt>
      <trkpt lat="44.60962" lon="3.03434">
        <ele>1297</ele>
      </trkpt>
      <trkpt lat="44.61065" lon="3.03564">
        <ele>1287</ele>
      </trkpt>
      <trkpt lat="44.61264" lon="3.03749">
        <ele>1274</ele>
      </trkpt>
      <trkpt lat="44.61324" lon="3.0381">
        <ele>1273</ele>
      </trkpt>
      <trkpt lat="44.61429" lon="3.03877">
        <ele>1277</ele>
      </trkpt>
      <trkpt lat="44.61638" lon="3.0421">
        <ele>1262</ele>
      </trkpt>
      <trkpt lat="44.61917" lon="3.04296">
        <ele>1261</ele>
      </trkpt>
      <trkpt lat="44.61939" lon="3.04381">
        <ele>1262</ele>
      </trkpt>
      <trkpt lat="44.61982" lon="3.04677">
        <ele>1262</ele>
      </trkpt>
      <trkpt lat="44.62037" lon="3.04857">
        <ele>1259</ele>
      </trkpt>
      <trkpt lat="44.62212" lon="3.05197">
        <ele>1255</ele>
      </trkpt>
      <trkpt lat="44.62312" lon="3.05399">
        <ele>1254</ele>
      </trkpt>
      <trkpt lat="44.62289" lon="3.0544">
        <ele>1257</ele>
      </trkpt>
      <trkpt lat="44.6213" lon="3.05661">
        <ele>1265</ele>
      </trkpt>
      <trkpt lat="44.621" lon="3.05815">
        <ele>1266</ele>
      </trkpt>
      <trkpt lat="44.62217" lon="3.06232">
        <ele>1266</ele>
      </trkpt>
      <trkpt lat="44.62274" lon="3.0679">
        <ele>1228</ele>
      </trkpt>
      <trkpt lat="44.62338" lon="3.06993">
        <ele>1224</ele>
      </trkpt>
      <trkpt lat="44.62288" lon="3.07068">
        <ele>1229</ele>
      </trkpt>
      <trkpt lat="44.62249" lon="3.07158">
        <ele>1233</ele>
      </trkpt>
      <trkpt lat="44.62201" lon="3.07498">
        <ele>1223</ele>
      </trkpt>
      <trkpt lat="44.62119" lon="3.07736">
        <ele>1224</ele>
      </trkpt>
      <trkpt lat="44.61702" lon="3.07844">
        <ele>1227</ele>
      </trkpt>
      <trkpt lat="44.61649" lon="3.07749">
        <ele>1234</ele>
      </trkpt>
      <trkpt lat="44.61575" lon="3.07719">
        <ele>1246</ele>
      </trkpt>
      <trkpt lat="44.61549" lon="3.07867">
        <ele>1242</ele>
      </trkpt>
      <trkpt lat="44.61613" lon="3.08438">
        <ele>1256</ele>
      </trkpt>
      <trkpt lat="44.61664" lon="3.08476">
        <ele>1250</ele>
      </trkpt>
      <trkpt lat="44.61721" lon="3.08688">
        <ele>1251</ele>
      </trkpt>
      <trkpt lat="44.61785" lon="3.08887">
        <ele>1254</ele>
      </trkpt>
      <trkpt lat="44.61802" lon="3.09114">
        <ele>1265</ele>
      </trkpt>
      <trkpt lat="44.61884" lon="3.09216">
        <ele>1262</ele>
      </trkpt>
      <trkpt lat="44.62025" lon="3.09284">
        <ele>1250</ele>
      </trkpt>
      <trkpt lat="44.62013" lon="3.09406">
        <ele>1252</ele>
      </trkpt>
      <trkpt lat="44.6209" lon="3.09599">
        <ele>1253</ele>
      </trkpt>
      <trkpt lat="44.6218" lon="3.0967">
        <ele>1254</ele>
      </trkpt>
      <trkpt lat="44.62497" lon="3.09658">
        <ele>1246</ele>
      </trkpt>
      <trkpt lat="44.62686" lon="3.09686">
        <ele>1244</ele>
      </trkpt>
      <trkpt lat="44.62895" lon="3.09683">
        <ele>1233</ele>
      </trkpt>
      <trkpt lat="44.62962" lon="3.09737">
        <ele>1229</ele>
      </trkpt>
      <trkpt lat="44.63012" lon="3.09725">
        <ele>1228</ele>
      </trkpt>
      <trkpt lat="44.63243" lon="3.09785">
        <ele>1222</ele>
      </trkpt>
      <trkpt lat="44.63288" lon="3.09694">
        <ele>1221</ele>
      </trkpt>
      <trkpt lat="44.63608" lon="3.09894">
        <ele>1198</ele>
      </trkpt>
      <trkpt lat="44.63741" lon="3.09971">
        <ele>1189</ele>
      </trkpt>
      <trkpt lat="44.6377" lon="3.09997">
        <ele>1189</ele>
      </trkpt>
      <trkpt lat="44.6381" lon="3.09979">
        <ele>1187</ele>
      </trkpt>
      <trkpt lat="44.63962" lon="3.10069">
        <ele>1181</ele>
      </trkpt>
      <trkpt lat="44.64007" lon="3.10101">
        <ele>1180</ele>
      </trkpt>
      <trkpt lat="44.64047" lon="3.10161">
        <ele>1184</ele>
      </trkpt>
      <trkpt lat="44.64185" lon="3.10122">
        <ele>1179</ele>
      </trkpt>
      <trkpt lat="44.64435" lon="3.10365">
        <ele>1176</ele>
      </trkpt>
      <trkpt lat="44.64542" lon="3.10461">
        <ele>1183</ele>
      </trkpt>
      <trkpt lat="44.64632" lon="3.10509">
        <ele>1189</ele>
      </trkpt>
      <trkpt lat="44.64652" lon="3.10532">
        <ele>1192</ele>
      </trkpt>
      <trkpt lat="44.64744" lon="3.10561">
        <ele>1200</ele>
      </trkpt>
      <trkpt lat="44.64831" lon="3.10578">
        <ele>1206</ele>
      </trkpt>
      <trkpt lat="44.6495" lon="3.10586">
        <ele>1209</ele>
      </trkpt>
      <trkpt lat="44.65027" lon="3.1065">
        <ele>1217</ele>
      </trkpt>
      <trkpt lat="44.6509" lon="3.10635">
        <ele>1211</ele>
      </trkpt>
      <trkpt lat="44.6509" lon="3.10635">
        <ele>1211</ele>
      </trkpt>
      <trkpt lat="44.6509" lon="3.10635">
        <ele>1211</ele>
      </trkpt>
    </trkseg>
  </trk>
</gpx>